When you browse on this site, cookies collect data to enhance your experience and personalize the content and advertising you see.
Visit our Privacy Policy to learn more. By continuing to use the site, you agree to this use of cookies and data.
  • In Lithuania
  • List of Countries
  • For 7 days
  • Water Temperature
  • Satellite Maps
  • Weather Map
  • Weather Widgets
  • user-avatar
    Login

    Hourly Weather Sarajevo

    Today, 27 May, Monday

    Time Temperature Precipitation Wind Pressure Humidity
    00:00 +13°C° 0 mm 1 mps 687 mmHg 90%
    01:00 +13°C° 0 mm 1 mps 686 mmHg 90%
    02:00 +13°C° 0.1 mm 1 mps 686 mmHg 89%
    03:00 +13°C° 0.1 mm 2 mps 686 mmHg 89%
    04:00 +13°C° 0.1 mm 2 mps 686 mmHg 89%
    05:00 +13°C° 1.5 mm 1 mps 686 mmHg 91%
    06:00 +13°C° 1.5 mm 1 mps 686 mmHg 94%
    07:00 +14°C° 0 mm 1 mps 686 mmHg 95%
    08:00 +14°C° 1.1 mm 1 mps 686 mmHg 94%
    09:00 +14°C° 1.1 mm 1 mps 686 mmHg 93%
    10:00 +15°C° 1.1 mm 1 mps 686 mmHg 92%
    11:00 +15°C° 1.3 mm 1 mps 686 mmHg 93%
    12:00 +15°C° 1.3 mm 1 mps 686 mmHg 94%
    13:00 +14°C° 1.3 mm 1 mps 686 mmHg 95%
    14:00 +14°C° 0.6 mm 1 mps 685 mmHg 96%
    15:00 +14°C° 0.6 mm 1 mps 685 mmHg 96%
    16:00 +14°C° 0.6 mm 1 mps 684 mmHg 97%
    17:00 +14°C° 0.5 mm 2 mps 684 mmHg 97%
    18:00 +14°C° 0.5 mm 2 mps 684 mmHg 97%
    19:00 +14°C° 0.5 mm 2 mps 684 mmHg 96%
    20:00 +13°C° 0.1 mm 2 mps 684 mmHg 95%
    21:00 +13°C° 0.1 mm 2 mps 684 mmHg 94%
    22:00 +13°C° 0.1 mm 2 mps 684 mmHg 93%
    23:00 +13°C° 0.2 mm 2 mps 683 mmHg 94%

    Tomorrow, 28 May, Tuesday

    Time Temperature Precipitation Wind Pressure Humidity
    00:00 +13°C° 0.2 mm 2 mps 683 mmHg 94%
    01:00 +12°C° 0.2 mm 2 mps 683 mmHg 94%
    02:00 +12°C° 1.1 mm 2 mps 682 mmHg 95%
    03:00 +12°C° 1.1 mm 2 mps 682 mmHg 96%
    04:00 +11°C° 1.1 mm 3 mps 682 mmHg 97%
    05:00 +11°C° 0.4 mm 3 mps 682 mmHg 96%
    06:00 +12°C° 0.4 mm 3 mps 682 mmHg 95%
    07:00 +12°C° 0.4 mm 4 mps 682 mmHg 93%
    08:00 +13°C° 0.2 mm 4 mps 682 mmHg 92%
    09:00 +13°C° 0.2 mm 4 mps 682 mmHg 91%
    10:00 +13°C° 0.2 mm 4 mps 683 mmHg 89%
    11:00 +13°C° 0.4 mm 3 mps 682 mmHg 90%
    12:00 +13°C° 0.4 mm 3 mps 682 mmHg 90%
    13:00 +13°C° 0.4 mm 3 mps 682 mmHg 90%
    14:00 +14°C° 0.4 mm 3 mps 682 mmHg 90%
    15:00 +14°C° 0.4 mm 3 mps 682 mmHg 90%
    16:00 +14°C° 0.4 mm 3 mps 682 mmHg 90%
    17:00 +13°C° 0.3 mm 3 mps 682 mmHg 92%
    18:00 +14°C° 0.3 mm 2 mps 682 mmHg 94%
    19:00 +13°C° 0.3 mm 2 mps 682 mmHg 95%
    20:00 +13°C° 0 mm 2 mps 683 mmHg 96%
    21:00 +12°C° 0 mm 2 mps 683 mmHg 96%
    22:00 +12°C° 0 mm 2 mps 683 mmHg 97%
    23:00 +12°C° 0.1 mm 2 mps 683 mmHg 97%

    Day after tomorrow, 29 May, Wednesday

    Time Temperature Precipitation Wind Pressure Humidity
    00:00 +12°C° 0.1 mm 2 mps 683 mmHg 97%
    01:00 +12°C° 0.1 mm 3 mps 683 mmHg 98%
    02:00 +11°C° 0.1 mm 3 mps 683 mmHg 97%
    03:00 +11°C° 0.1 mm 3 mps 683 mmHg 97%
    04:00 +11°C° 0.1 mm 3 mps 683 mmHg 97%
    05:00 +12°C° 0.1 mm 3 mps 684 mmHg 95%
    06:00 +12°C° 0.1 mm 3 mps 684 mmHg 92%
    07:00 +12°C° 0.1 mm 4 mps 684 mmHg 90%
    08:00 +13°C° 0.1 mm 4 mps 684 mmHg 86%
    09:00 +14°C° 0.1 mm 4 mps 685 mmHg 82%
    10:00 +14°C° 0.1 mm 5 mps 685 mmHg 78%
    11:00 +14°C° 0.2 mm 5 mps 685 mmHg 79%
    12:00 +14°C° 0.2 mm 5 mps 685 mmHg 81%
    13:00 +13°C° 0.2 mm 4 mps 686 mmHg 82%
    14:00 +14°C° 0.1 mm 4 mps 686 mmHg 78%
    15:00 +14°C° 0.1 mm 4 mps 686 mmHg 74%
    16:00 +14°C° 0.1 mm 4 mps 686 mmHg 70%
    17:00 +13°C° 0 mm 3 mps 686 mmHg 76%
    18:00 +13°C° 0 mm 2 mps 686 mmHg 82%
    19:00 +11°C° 0 mm 1 mps 686 mmHg 87%
    20:00 +11°C° 0.4 mm 1 mps 686 mmHg 90%
    21:00 +10°C° 0.4 mm 1 mps 687 mmHg 93%
    22:00 +10°C° 0.4 mm 1 mps 687 mmHg 95%
    23:00 +10°C° 1.7 mm 1 mps 687 mmHg 96%

    30 May, Thursday

    Time Temperature Precipitation Wind Pressure Humidity
    00:00 +10°C° 1.7 mm 1 mps 687 mmHg 97%
    01:00 +10°C° 1.7 mm 1 mps 687 mmHg 97%
    02:00 +9°C° 0.1 mm 1 mps 687 mmHg 97%
    03:00 +8°C° 0.1 mm 1 mps 687 mmHg 96%
    04:00 +8°C° 0.1 mm 1 mps 687 mmHg 95%
    05:00 +9°C° 0 mm 1 mps 687 mmHg 93%
    06:00 +10°C° 0 mm 0 mps 688 mmHg 90%
    07:00 +12°C° 0 mm 0 mps 688 mmHg 88%
    08:00 +14°C° 0.4 mm 1 mps 689 mmHg 82%
    09:00 +15°C° 0.4 mm 1 mps 689 mmHg 76%
    10:00 +16°C° 0.4 mm 1 mps 690 mmHg 71%
    11:00 +16°C° 1 mm 1 mps 690 mmHg 75%
    12:00 +16°C° 1 mm 1 mps 689 mmHg 78%
    13:00 +15°C° 1 mm 2 mps 689 mmHg 82%
    14:00 +15°C° 1.3 mm 1 mps 690 mmHg 84%
    15:00 +14°C° 1.3 mm 1 mps 690 mmHg 87%
    16:00 +14°C° 1.3 mm 1 mps 690 mmHg 89%
    17:00 +13°C° 0.9 mm 1 mps 690 mmHg 92%
    18:00 +12°C° 0.9 mm 1 mps 690 mmHg 94%
    19:00 +10°C° 0.9 mm 2 mps 690 mmHg 96%
    20:00 +10°C° 0.2 mm 2 mps 690 mmHg 96%
    21:00 +9°C° 0.2 mm 2 mps 690 mmHg 96%
    22:00 +8°C° 0.2 mm 2 mps 690 mmHg 97%
    23:00 +8°C° 0.1 mm 2 mps 690 mmHg 97%

    31 May, Friday

    Time Temperature Precipitation Wind Pressure Humidity
    00:00 +7°C° 0.1 mm 2 mps 690 mmHg 97%
    01:00 +7°C° 0.1 mm 2 mps 690 mmHg 97%
    02:00 +6°C° 0 mm 2 mps 690 mmHg 97%
    03:00 +6°C° 0 mm 2 mps 689 mmHg 97%
    04:00 +6°C° 0 mm 2 mps 689 mmHg 97%
    05:00 +7°C° 0 mm 2 mps 689 mmHg 96%
    06:00 +8°C° 0 mm 2 mps 690 mmHg 94%
    07:00 +9°C° 0 mm 3 mps 690 mmHg 92%
    08:00 +11°C° 0 mm 3 mps 690 mmHg 86%
    09:00 +12°C° 0 mm 3 mps 690 mmHg 79%
    10:00 +13°C° 0 mm 3 mps 691 mmHg 72%
    11:00 +14°C° 0 mm 3 mps 691 mmHg 71%
    12:00 +14°C° 0 mm 3 mps 691 mmHg 71%
    13:00 +16°C° 0 mm 3 mps 690 mmHg 70%
    14:00 +14°C° 0.1 mm 3 mps 690 mmHg 74%
    15:00 +14°C° 0.1 mm 3 mps 690 mmHg 78%
    16:00 +13°C° 0.1 mm 3 mps 689 mmHg 81%
    17:00 +13°C° 0 mm 3 mps 689 mmHg 85%
    18:00 +12°C° 0 mm 3 mps 689 mmHg 89%
    19:00 +12°C° 0 mm 2 mps 689 mmHg 92%
    20:00 +12°C° 0 mm 2 mps 689 mmHg 94%
    21:00 +10°C° 0 mm 3 mps 689 mmHg 95%
    22:00 +10°C° 0 mm 3 mps 689 mmHg 96%
    23:00 +10°C° 0 mm 3 mps 689 mmHg 96%

    1 June, Saturday

    Time Temperature Precipitation Wind Pressure Humidity
    00:00 +10°C° 0 mm 3 mps 688 mmHg 97%
    01:00 +10°C° 0 mm 3 mps 688 mmHg 97%
    02:00 +9°C° 0 mm 3 mps 688 mmHg 97%
    03:00 +9°C° 0 mm 2 mps 688 mmHg 97%
    04:00 +9°C° 0 mm 2 mps 687 mmHg 97%
    05:00 +10°C° 0.2 mm 3 mps 688 mmHg 96%
    06:00 +11°C° 0.2 mm 3 mps 688 mmHg 94%
    07:00 +12°C° 0.2 mm 3 mps 688 mmHg 93%
    08:00 +12°C° 0.3 mm 4 mps 688 mmHg 92%
    09:00 +12°C° 0.3 mm 4 mps 688 mmHg 92%
    10:00 +12°C° 0.3 mm 4 mps 688 mmHg 92%
    11:00 +12°C° 0.2 mm 4 mps 688 mmHg 91%
    12:00 +12°C° 0.2 mm 4 mps 688 mmHg 90%
    13:00 +13°C° 0.2 mm 4 mps 688 mmHg 90%
    14:00 +13°C° 0.1 mm 4 mps 688 mmHg 90%
    15:00 +12°C° 0.1 mm 3 mps 688 mmHg 90%
    16:00 +12°C° 0.1 mm 3 mps 688 mmHg 90%
    17:00 +12°C° 0.2 mm 3 mps 688 mmHg 92%
    18:00 +12°C° 0.2 mm 3 mps 688 mmHg 93%
    19:00 +11°C° 0.2 mm 3 mps 687 mmHg 94%
    20:00 +11°C° 0.1 mm 3 mps 688 mmHg 95%
    21:00 +11°C° 0.1 mm 3 mps 688 mmHg 96%
    22:00 +11°C° 0.1 mm 3 mps 688 mmHg 96%
    23:00 +11°C° 0.1 mm 3 mps 688 mmHg 97%
    Show more